EW0890 Weather Reports


Display with metric or nautical units.
time (UTC)temp
F
wind
direction
speed
MPH
gust
MPH
rain 1hr
in
rain 24hr
in
rain mn
in
humidity
%
barometer
mb
20260904210026 93 284 3.0 5.0 0.00 0.00 0.00 64 1013.3
20260904205512 94 273 2.0 5.0 0.00 0.00 0.00 64 1013.4
20260904205012 93 259 1.0 5.0 0.00 0.00 0.00 65 1013.4
20260904204603 93 199 3.0 5.0 0.00 0.00 0.00 63 1013.5
20260904204525 93 245 3.0 5.0 0.00 0.00 0.00 63 1013.4
20260904204011 93 288 2.0 4.0 0.00 0.00 0.00 64 1013.5
20260904203503 93 274 2.0 4.0 0.00 0.00 0.00 64 1013.5
20260904203100 93 281 2.0 6.0 0.00 0.00 0.00 62 1013.7
20260904203007 93 288 2.0 6.0 0.00 0.00 0.00 62 1013.6
20260904202502 94 285 3.0 6.0 0.00 0.00 0.00 63 1013.7
20260904202006 94 289 1.0 5.0 0.00 0.00 0.00 65 1013.7
20260904201628 94 245 2.0 6.0 0.00 0.00 0.00 63 1013.8
20260904201511 94 262 3.0 6.0 0.00 0.00 0.00 62 1013.7
20260904201007 94 262 3.0 6.0 0.00 0.00 0.00 63 1013.7
20260904200506 94 272 3.0 6.0 0.00 0.00 0.00 62 1013.8
20260904200104 94 139 1.0 4.0 0.00 0.00 0.00 64 1014.0
20260904200039 94 170 1.0 4.0 0.00 0.00 0.00 64 1013.8
20260904195510 94 211 2.0 5.0 0.00 0.00 0.00 64 1013.9
20260904195013 94 291 2.0 6.0 0.00 0.00 0.00 64 1013.9
20260904194601 94 282 3.0 6.0 0.00 0.00 0.00 63 1014.2
20260904194540 94 276 4.0 6.0 0.00 0.00 0.00 63 1014.1
20260904194015 94 253 2.0 4.0 0.00 0.00 0.00 65 1014.1
20260904193510 94 238 1.0 4.0 0.00 0.00 0.00 64 1014.1
20260904193101 94 281 2.0 5.0 0.00 0.00 0.00 63 1014.4
20260904193027 94 285 2.0 5.0 0.00 0.00 0.00 61 1014.1
20260904192515 94 269 1.0 6.0 0.00 0.00 0.00 64 1014.2
20260904192003 94 265 3.0 6.0 0.00 0.00 0.00 63 1014.3
20260904191602 94 271 2.0 4.0 0.00 0.00 0.00 65 1014.4
20260904191516 94 265 1.0 4.0 0.00 0.00 0.00 64 1014.3
20260904191004 94 265 1.0 5.0 0.00 0.00 0.00 65 1014.3
20260904190504 94 257 1.0 5.0 0.00 0.00 0.00 65 1014.3
20260904190105 94 283 1.0 4.0 0.00 0.00 0.00 62 1014.7
20260904190016 94 254 1.0 4.0 0.00 0.00 0.00 64 1014.5
20260904185507 94 268 1.0 5.0 0.00 0.00 0.00 65 1014.7
20260904185007 94 276 3.0 5.0 0.00 0.00 0.00 63 1014.6
20260904184602 94 278 2.0 5.0 0.00 0.00 0.00 63 1014.8
20260904184528 94 281 3.0 5.0 0.00 0.00 0.00 62 1014.6
20260904184011 94 267 1.0 6.0 0.00 0.00 0.00 62 1014.6
20260904183511 93 259 4.0 6.0 0.00 0.00 0.00 62 1014.6
20260904183116 94 295 3.0 6.0 0.00 0.00 0.00 63 1014.7
20260904183030 94 287 3.0 6.0 0.00 0.00 0.00 63 1014.6
20260904182513 94 271 3.0 6.0 0.00 0.00 0.00 62 1014.7
20260904182013 94 237 2.0 6.0 0.00 0.00 0.00 65 1014.7
20260904181556 94 245 2.0 5.0 0.00 0.00 0.00 64 1015.0
20260904181530 94 277 2.0 5.0 0.00 0.00 0.00 64 1014.7
20260904181017 94 234 3.0 5.0 0.00 0.00 0.00 62 1014.8
20260904180505 94 262 2.0 4.0 0.00 0.00 0.00 64 1014.7
20260904180103 94 267 2.0 6.0 0.00 0.00 0.00 65 1015.1
20260904180013 94 248 2.0 4.0 0.00 0.00 0.00 64 1014.9
20260904175507 93 293 2.0 6.0 0.00 0.00 0.00 66 1014.9
20260904175007 93 283 3.0 6.0 0.00 0.00 0.00 60 1015.0
20260904174605 93 289 3.0 6.0 0.00 0.00 0.00 63 1015.3
20260904174528 93 255 2.0 6.0 0.00 0.00 0.00 63 1015.0
20260904174007 93 291 2.0 7.0 0.00 0.00 0.00 66 1015.0
20260904173509 93 229 2.0 7.0 0.00 0.00 0.00 63 1015.1
20260904173103 93 284 2.0 8.0 0.00 0.00 0.00 66 1015.4
20260904173023 93 279 2.0 8.0 0.00 0.00 0.00 68 1015.1
20260904172510 92 293 4.0 8.0 0.00 0.00 0.00 64 1015.1
20260904172014 92 258 2.0 5.0 0.00 0.00 0.00 67 1015.2
20260904171616 92 262 2.0 5.0 0.00 0.00 0.00 68 1015.5
20260904171527 92 245 2.0 5.0 0.00 0.00 0.00 67 1015.2
20260904171011 92 267 1.0 5.0 0.00 0.00 0.00 67 1015.3
20260904170511 92 276 2.0 5.0 0.00 0.00 0.00 68 1015.3
20260904170105 91 274 1.0 6.0 0.00 0.00 0.00 66 1015.8
20260904170043 91 94 1.0 6.0 0.00 0.00 0.00 68 1015.4
20260904165511 91 293 3.0 6.0 0.00 0.00 0.00 69 1015.5
20260904165003 91 295 3.0 5.0 0.00 0.00 0.00 65 1015.5
20260904164626 91 282 2.0 5.0 0.00 0.00 0.00 67 1015.9
20260904164513 91 276 2.0 5.0 0.00 0.00 0.00 66 1015.5
20260904164006 91 295 2.0 5.0 0.00 0.00 0.00 67 1015.5
20260904163508 91 244 1.0 5.0 0.00 0.00 0.00 69 1015.5
20260904163113 90 283 2.0 6.0 0.00 0.00 0.00 69 1015.8
20260904163018 90 288 2.0 6.0 0.00 0.00 0.00 69 1015.5
20260904162510 90 283 3.0 6.0 0.00 0.00 0.00 68 1015.4
20260904162011 90 262 3.0 8.0 0.00 0.00 0.00 68 1015.5
20260904161605 90 253 3.0 8.0 0.00 0.00 0.00 70 1015.7
20260904161524 90 227 2.0 8.0 0.00 0.00 0.00 70 1015.5
20260904161016 90 311 3.0 5.0 0.00 0.00 0.00 69 1015.5
20260904160513 90 236 2.0 7.0 0.00 0.00 0.00 69 1015.5
20260904160116 89 278 3.0 7.0 0.00 0.00 0.00 70 1015.6
20260904160026 89 280 3.0 7.0 0.00 0.00 0.00 71 1015.5
20260904155515 89 304 2.0 7.0 0.00 0.00 0.00 69 1015.4
20260904155014 89 276 2.0 7.0 0.00 0.00 0.00 69 1015.4
20260904154605 89 282 4.0 6.0 0.00 0.00 0.00 69 1015.6
20260904154531 89 278 4.0 6.0 0.00 0.00 0.00 69 1015.4
20260904154013 89 259 2.0 4.0 0.00 0.00 0.00 71 1015.4
20260904153504 89 284 2.0 5.0 0.00 0.00 0.00 72 1015.3
20260904153114 88 237 2.0 6.0 0.00 0.00 0.00 72 1015.6
20260904153014 88 241 2.0 6.0 0.00 0.00 0.00 71 1015.3
20260904152507 88 268 2.0 6.0 0.00 0.00 0.00 71 1015.3
20260904152009 88 262 2.0 6.0 0.00 0.00 0.00 72 1015.3
20260904151605 87 256 3.0 5.0 0.00 0.00 0.00 72 1015.5
20260904151523 87 274 3.0 5.0 0.00 0.00 0.00 72 1015.2
20260904151012 87 288 3.0 8.0 0.00 0.00 0.00 72 1015.1
20260904150509 87 276 3.0 8.0 0.00 0.00 0.00 72 1015.1
20260904150106 87 261 3.0 7.0 0.00 0.00 0.00 73 1015.4
20260904150034 86 281 3.0 7.0 0.00 0.00 0.00 73 1015.1
20260904145514 86 291 3.0 7.0 0.00 0.00 0.00 74 1015.1
20260904145012 86 285 4.0 7.0 0.00 0.00 0.00 72 1015.1
20260904144603 86 274 4.0 6.0 0.00 0.00 0.00 72 1015.2
20260904144530 86 299 4.0 6.0 0.00 0.00 0.00 72 1015.1
20260904144014 85 221 4.0 7.0 0.00 0.00 0.00 73 1015.1
20260904143516 85 274 3.0 8.0 0.00 0.00 0.00 74 1015.1
20260904143103 85 282 4.0 8.0 0.00 0.00 0.00 74 1015.2
20260904143032 85 288 4.0 8.0 0.00 0.00 0.00 74 1014.9
20260904142515 85 271 4.0 7.0 0.00 0.00 0.00 74 1014.9
20260904142009 84 321 3.0 9.0 0.00 0.00 0.00 75 1014.8
20260904141601 84 294 4.0 9.0 0.00 0.00 0.00 75 1015.0
20260904141517 84 275 4.0 9.0 0.00 0.00 0.00 74 1014.9
20260904141007 84 283 4.0 9.0 0.00 0.00 0.00 75 1014.8
20260904140509 84 268 5.0 7.0 0.00 0.00 0.00 75 1014.9
20260904140103 84 288 3.0 6.0 0.00 0.00 0.00 75 1015.0
20260904140021 84 235 4.0 6.0 0.00 0.00 0.00 75 1014.9
20260904135512 83 241 3.0 6.0 0.00 0.00 0.00 76 1014.9
20260904135012 83 242 3.0 6.0 0.00 0.00 0.00 77 1015.0
20260904134606 83 305 3.0 6.0 0.00 0.00 0.00 77 1014.9
20260904134531 83 309 3.0 6.0 0.00 0.00 0.00 78 1015.0
20260904134016 82 313 3.0 6.0 0.00 0.00 0.00 78 1015.0
20260904133515 82 270 3.0 6.0 0.00 0.00 0.00 78 1015.0
20260904133105 82 281 3.0 6.0 0.00 0.00 0.00 78 1015.0
20260904133033 82 243 2.0 6.0 0.00 0.00 0.00 78 1015.0
20260904132515 82 274 3.0 5.0 0.00 0.00 0.00 78 1015.0
20260904132015 81 275 2.0 5.0 0.00 0.00 0.00 78 1015.1
20260904131618 81 289 3.0 5.0 0.00 0.00 0.00 78 1015.0
20260904131535 81 268 3.0 5.0 0.00 0.00 0.00 78 1015.0
20260904131014 81 296 2.0 5.0 0.00 0.00 0.00 78 1015.0
20260904130507 81 300 2.0 5.0 0.00 0.00 0.00 79 1014.8
20260904130104 81 255 2.0 4.0 0.00 0.00 0.00 79 1014.7
20260904130023 81 302 2.0 4.0 0.00 0.00 0.00 79 1014.7
20260904125508 80 253 2.0 5.0 0.00 0.00 0.00 79 1014.6
20260904125014 80 250 2.0 5.0 0.00 0.00 0.00 79 1014.5
20260904124600 80 302 2.0 5.0 0.00 0.00 0.00 79 1014.5
20260904124526 80 281 2.0 5.0 0.00 0.00 0.00 80 1014.4
20260904124011 79 316 2.0 5.0 0.00 0.00 0.00 81 1014.4
20260904123514 79 275 2.0 3.0 0.00 0.00 0.00 81 1014.3
20260904123105 79 288 2.0 4.0 0.00 0.00 0.00 81 1014.3
20260904123031 79 251 2.0 4.0 0.00 0.00 0.00 81 1014.2
20260904122516 79 277 2.0 4.0 0.00 0.00 0.00 81 1014.1
20260904122015 78 248 2.0 4.0 0.00 0.00 0.00 81 1014.1
20260904121558 78 281 2.0 4.0 0.00 0.00 0.00 82 1014.2
20260904121533 78 268 2.0 4.0 0.00 0.00 0.00 82 1014.0
20260904121017 77 281 2.0 4.0 0.00 0.00 0.00 83 1013.9
20260904120516 77 256 2.0 4.0 0.00 0.00 0.00 84 1013.9
20260904120104 76 284 2.0 4.0 0.00 0.00 0.00 85 1014.1
20260904120035 76 274 2.0 4.0 0.00 0.00 0.00 85 1013.9
20260904115516 76 310 1.0 2.0 0.00 0.00 0.00 87 1013.8
20260904115010 75 299 1.0 3.0 0.00 0.00 0.00 87 1013.8
20260904114605 75 290 1.0 3.0 0.00 0.00 0.00 87 1014.0
20260904114524 75 264 1.0 3.0 0.00 0.00 0.00 87 1013.8
20260904114014 75 285 1.0 3.0 0.00 0.00 0.00 88 1013.8
20260904113503 75 273 1.0 3.0 0.00 0.00 0.00 88 1013.9
20260904113102 75 284 1.0 3.0 0.00 0.00 0.00 88 1014.0
20260904113004 75 307 1.0 3.0 0.00 0.00 0.00 88 1013.9
20260904112503 75 280 1.0 3.0 0.00 0.00 0.00 88 1013.8
20260904112003 75 262 1.0 3.0 0.00 0.00 0.00 88 1013.8
20260904111600 75 274 1.0 3.0 0.00 0.00 0.00 87 1014.0
20260904111508 75 255 1.0 3.0 0.00 0.00 0.00 87 1013.8
20260904111003 75 281 1.0 3.0 0.00 0.00 0.00 87 1013.9
20260904110503 75 301 1.0 3.0 0.00 0.00 0.00 87 1013.9
20260904110014 75 281 1.0 2.0 0.00 0.00 0.00 87 1013.8
20260904105508 75 290 1.0 2.0 0.00 0.00 0.00 87 1013.8
20260904105008 75 262 1.0 2.0 0.00 0.00 0.00 88 1013.9
20260904104602 75 262 1.0 2.0 0.00 0.00 0.00 88 1014.0
20260904104522 75 283 1.0 2.0 0.00 0.00 0.00 88 1013.9
20260904104014 75 278 1.0 2.0 0.00 0.00 0.00 88 1014.0
20260904103512 75 283 0.0 2.0 0.00 0.00 0.00 88 1014.0
20260904103101 75 286 1.0 3.0 0.00 0.00 0.00 88 1014.1
20260904103027 75 275 1.0 2.0 0.00 0.00 0.00 88 1014.0
20260904102513 75 302 1.0 3.0 0.00 0.00 0.00 88 1014.0
20260904102003 75 278 1.0 3.0 0.00 0.00 0.00 88 1014.1
20260904101610 75 252 1.0 2.0 0.00 0.00 0.00 88 1014.2
20260904101510 75 279 1.0 2.0 0.00 0.00 0.00 88 1014.0
20260904101004 75 293 0.0 2.0 0.00 0.00 0.00 88 1014.0
20260904100504 75 295 0.0 2.0 0.00 0.00 0.00 88 1014.0
20260904100107 75 271 0.0 2.0 0.00 0.00 0.00 87 1014.2
20260904100011 75 290 0.0 2.0 0.00 0.00 0.00 87 1014.1
20260904095504 75 278 1.0 2.0 0.00 0.00 0.00 87 1014.0
20260904095003 75 293 1.0 2.0 0.00 0.00 0.00 87 1014.1
20260904094607 75 283 1.0 2.0 0.00 0.00 0.00 87 1014.2
20260904094516 75 273 1.0 2.0 0.00 0.00 0.00 87 1014.0
20260904094007 75 273 1.0 2.0 0.00 0.00 0.00 86 1014.0
20260904093507 75 266 0.0 2.0 0.00 0.00 0.00 86 1014.1
20260904093118 76 278 0.0 1.0 0.00 0.00 0.00 86 1014.1
20260904093049 76 277 0.0 1.0 0.00 0.00 0.00 86 1014.0
20260904092511 76 290 0.0 2.0 0.00 0.00 0.00 86 1013.9
20260904092011 76 291 0.0 2.0 0.00 0.00 0.00 86 1014.0
20260904091615 76 0 0.0 3.0 0.00 0.00 0.00 86 1014.1
20260904091531 76 293 0.0 3.0 0.00 0.00 0.00 86 1014.0
20260904091012 76 305 0.0 3.0 0.00 0.00 0.00 86 1013.9
20260904090503 76 243 0.0 2.0 0.00 0.00 0.00 86 1013.8
20260904090100 76 259 0.0 2.0 0.00 0.00 0.00 85 1013.9
20260904090007 76 269 0.0 2.0 0.00 0.00 0.00 85 1013.7
20260904085504 76 297 0.0 2.0 0.00 0.00 0.00 85 1013.6
20260904085004 76 270 0.0 3.0 0.00 0.00 0.00 85 1013.6
20260904084557 76 251 1.0 3.0 0.00 0.00 0.00 85 1013.8
20260904084512 76 293 1.0 3.0 0.00 0.00 0.00 85 1013.6
20260904084007 76 235 1.0 3.0 0.00 0.00 0.00 85 1013.6
20260904083507 76 280 1.0 3.0 0.00 0.00 0.00 85 1013.6
20260904083107 76 283 1.0 3.0 0.00 0.00 0.00 85 1013.8
20260904083017 76 242 1.0 3.0 0.00 0.00 0.00 85 1013.6
20260904082508 76 332 1.0 3.0 0.00 0.00 0.00 85 1013.5
20260904082008 76 300 1.0 3.0 0.00 0.00 0.00 85 1013.5
20260904081557 76 221 1.0 3.0 0.00 0.00 0.00 85 1013.7
20260904081524 76 260 1.0 3.0 0.00 0.00 0.00 85 1013.5
20260904081012 76 292 1.0 3.0 0.00 0.00 0.00 85 1013.5
20260904080513 76 275 1.0 3.0 0.00 0.00 0.00 86 1013.6
20260904080027 76 238 0.0 1.0 0.00 0.00 0.00 86 1013.6
20260904075514 76 290 0.0 2.0 0.00 0.00 0.00 86 1013.7
20260904075003 76 226 0.0 2.0 0.00 0.00 0.00 86 1013.6
20260904074559 76 274 0.0 2.0 0.00 0.00 0.00 86 1013.8
20260904074509 76 281 0.0 2.0 0.00 0.00 0.00 86 1013.6
20260904074003 75 298 0.0 1.0 0.00 0.00 0.00 87 1013.7
20260904073507 75 287 0.0 0.0 0.00 0.00 0.00 87 1013.7
20260904073117 75 0 0.0 1.0 0.00 0.00 0.00 88 1013.9
20260904073035 75 255 0.0 1.0 0.00 0.00 0.00 88 1013.8
20260904072506 75 253 0.0 1.0 0.00 0.00 0.00 88 1013.9
20260904072010 75 239 0.0 0.0 0.00 0.00 0.00 88 1013.9
20260904071600 75 0 0.0 0.0 0.00 0.00 0.00 88 1014.1
20260904071522 75 274 0.0 0.0 0.00 0.00 0.00 88 1014.0
20260904071011 75 266 0.0 0.0 0.00 0.00 0.00 88 1013.9
20260904070512 75 268 0.0 0.0 0.00 0.00 0.00 88 1014.2
20260904070028 75 272 0.0 0.0 0.00 0.00 0.00 88 1014.0
20260904065514 75 271 0.0 1.0 0.00 0.00 0.00 89 1014.0
20260904065015 75 270 0.0 1.0 0.00 0.00 0.00 89 1014.1
20260904064608 75 0 0.0 1.0 0.00 0.00 0.00 89 1014.3
20260904064529 75 270 0.0 1.0 0.00 0.00 0.00 89 1014.2
20260904064015 75 255 0.0 1.0 0.00 0.00 0.00 89 1014.1
20260904063504 75 263 0.0 1.0 0.00 0.00 0.00 89 1014.1
20260904063107 75 0 0.0 1.0 0.00 0.00 0.00 89 1014.3
20260904063011 75 214 0.0 1.0 0.00 0.00 0.00 89 1014.2
20260904062504 75 245 0.0 1.0 0.00 0.00 0.00 89 1014.1
20260904062004 75 261 0.0 1.0 0.00 0.00 0.00 89 1014.1
20260904061600 75 0 0.0 1.0 0.00 0.00 0.00 89 1014.2
20260904061518 75 234 0.0 1.0 0.00 0.00 0.00 89 1014.1
20260904061008 75 234 0.0 1.0 0.00 0.00 0.00 89 1014.2
20260904060508 75 288 0.0 0.0 0.00 0.00 0.00 90 1014.2
20260904060127 75 0 0.0 0.0 0.00 0.00 0.00 90 1014.3
20260904060028 75 287 0.0 0.0 0.00 0.00 0.00 90 1014.1
20260904055511 75 270 0.0 0.0 0.00 0.00 0.00 90 1014.1
20260904055012 75 259 0.0 0.0 0.00 0.00 0.00 90 1014.2
20260904054636 75 0 0.0 0.0 0.00 0.00 0.00 90 1014.3
20260904054530 75 259 0.0 0.0 0.00 0.00 0.00 90 1014.1
20260904054015 75 257 0.0 0.0 0.00 0.00 0.00 91 1014.2
20260904053515 75 222 0.0 0.0 0.00 0.00 0.00 90 1014.2
20260904053058 75 0 0.0 0.0 0.00 0.00 0.00 90 1014.3
20260904053032 75 222 0.0 0.0 0.00 0.00 0.00 90 1014.1
20260904052516 75 222 0.0 0.0 0.00 0.00 0.00 91 1014.1
20260904052006 75 197 0.0 0.0 0.00 0.00 0.00 91 1014.2
20260904051601 75 0 0.0 0.0 0.00 0.00 0.00 91 1014.4
20260904051515 75 166 0.0 0.0 0.00 0.00 0.00 91 1014.2
20260904051005 75 96 0.0 0.0 0.00 0.00 0.00 91 1014.3
20260904050507 75 94 0.0 0.0 0.00 0.00 0.00 91 1014.2
20260904050107 75 0 0.0 0.0 0.00 0.00 0.00 91 1014.5
20260904050022 75 94 0.0 0.0 0.00 0.00 0.00 91 1014.4
20260904045509 75 96 0.0 0.0 0.00 0.00 0.00 91 1014.3
20260904045009 75 83 0.0 0.0 0.00 0.00 0.00 91 1014.3
20260904044559 75 0 0.0 0.0 0.00 0.00 0.00 90 1014.5
20260904044526 75 89 0.0 0.0 0.00 0.00 0.00 90 1014.4
20260904044014 75 89 0.0 0.0 0.00 0.00 0.00 90 1014.3
20260904043515 75 89 0.0 0.0 0.00 0.00 0.00 90 1014.2
20260904043105 75 0 0.0 0.0 0.00 0.00 0.00 89 1014.5
20260904043030 75 89 0.0 0.0 0.00 0.00 0.00 89 1014.2
20260904042516 76 88 0.0 0.0 0.00 0.00 0.00 89 1014.3
20260904042014 76 89 0.0 0.0 0.00 0.00 0.00 89 1014.2
20260904041604 76 0 0.0 0.0 0.00 0.00 0.00 88 1014.3
20260904041533 76 88 0.0 0.0 0.00 0.00 0.00 88 1014.1
20260904041003 76 105 0.0 1.0 0.00 0.00 0.00 88 1014.1
20260904040506 77 105 0.0 1.0 0.00 0.00 0.00 88 1014.2
20260904040018 77 250 0.0 1.0 0.00 0.00 0.00 87 1014.1
20260904035510 77 245 0.0 0.0 0.00 0.00 0.00 87 1014.1
20260904035008 77 244 0.0 1.0 0.00 0.00 0.00 87 1014.2
20260904034601 77 0 0.0 1.0 0.00 0.00 0.00 87 1014.2
20260904034526 77 244 0.0 1.0 0.00 0.00 0.00 87 1014.2
20260904034012 77 241 0.0 0.0 0.00 0.00 0.00 87 1014.1
20260904033511 77 241 0.0 1.0 0.00 0.00 0.00 88 1014.0
20260904033102 77 0 0.0 1.0 0.00 0.00 0.00 88 1014.1
20260904033036 77 241 0.0 1.0 0.00 0.00 0.00 88 1014.1
20260904032513 77 240 0.0 0.0 0.00 0.00 0.00 88 1013.9
20260904032014 77 240 0.0 0.0 0.00 0.00 0.00 88 1013.8
20260904031606 77 0 0.0 0.0 0.00 0.00 0.00 87 1014.1
20260904031533 77 240 0.0 0.0 0.00 0.00 0.00 87 1013.9
20260904031016 77 240 0.0 0.0 0.00 0.00 0.00 87 1014.0
20260904030520 77 240 0.0 0.0 0.00 0.00 0.00 87 1013.9
20260904030055 77 0 0.0 0.0 0.00 0.00 0.00 87 1014.0
20260904030034 77 240 0.0 0.0 0.00 0.00 0.00 87 1013.8
20260904025507 78 153 0.0 0.0 0.00 0.00 0.00 87 1013.8
20260904025007 78 149 0.0 0.0 0.00 0.00 0.00 87 1013.9
20260904024602 78 0 0.0 0.0 0.00 0.00 0.00 87 1014.0
20260904024523 78 149 0.0 0.0 0.00 0.00 0.00 87 1013.8
20260904024008 78 129 0.0 0.0 0.00 0.00 0.00 87 1013.7
20260904023513 78 129 0.0 1.0 0.00 0.00 0.00 87 1013.8
20260904023107 79 0 0.0 1.0 0.00 0.00 0.00 87 1013.9
20260904023025 79 129 0.0 1.0 0.00 0.00 0.00 87 1013.7
20260904022510 79 173 0.0 1.0 0.00 0.00 0.00 87 1013.7
20260904022014 79 167 0.0 1.0 0.00 0.00 0.00 87 1013.6
20260904021604 79 0 0.0 1.0 0.00 0.00 0.00 87 1013.8
20260904021532 79 143 0.0 1.0 0.00 0.00 0.00 87 1013.6
20260904021003 79 136 0.0 1.0 0.00 0.00 0.00 86 1013.7
20260904020504 80 135 0.0 0.0 0.00 0.00 0.00 86 1013.6
20260904020106 80 0 0.0 0.0 0.00 0.00 0.00 86 1013.8
20260904020009 80 158 0.0 0.0 0.00 0.00 0.00 86 1013.5
20260904015503 80 91 0.0 1.0 0.00 0.00 0.00 86 1013.5
20260904015006 80 133 0.0 1.0 0.00 0.00 0.00 86 1013.6
20260904014622 80 0 0.0 0.0 0.00 0.00 0.00 86 1013.6
20260904014512 80 114 0.0 0.0 0.00 0.00 0.00 86 1013.5
20260904014006 80 108 0.0 0.0 0.00 0.00 0.00 86 1013.3
20260904013509 80 101 0.0 1.0 0.00 0.00 0.00 86 1013.2
20260904013122 80 0 0.0 1.0 0.00 0.00 0.00 87 1013.2
20260904013021 80 101 0.0 1.0 0.00 0.00 0.00 87 1013.2
20260904012511 81 134 0.0 0.0 0.00 0.00 0.00 86 1013.3
20260904012010 81 134 0.0 0.0 0.00 0.00 0.00 86 1013.1
20260904011559 81 0 0.0 0.0 0.00 0.00 0.00 85 1013.2
20260904011524 81 134 0.0 0.0 0.00 0.00 0.00 85 1013.0
20260904011015 82 134 0.0 0.0 0.00 0.00 0.00 84 1013.0
20260904010514 82 134 0.0 0.0 0.00 0.00 0.00 83 1013.0
20260904010116 83 0 0.0 0.0 0.00 0.00 0.00 83 1013.0
20260904010032 83 134 0.0 0.0 0.00 0.00 0.00 82 1013.0
20260904005504 83 124 0.0 0.0 0.00 0.00 0.00 82 1013.0
20260904005005 84 124 0.0 0.0 0.00 0.00 0.00 81 1012.9
20260904004616 84 0 0.0 0.0 0.00 0.00 0.00 80 1012.9
20260904004508 84 124 0.0 0.0 0.00 0.00 0.00 80 1013.0
20260904004006 85 124 0.0 0.0 0.00 0.00 0.00 78 1012.9
20260904003506 86 124 0.0 0.0 0.00 0.00 0.00 77 1012.9
20260904003125 87 0 0.0 0.0 0.00 0.00 0.00 76 1013.0
20260904003015 87 99 0.0 0.0 0.00 0.00 0.00 76 1012.9
20260904002508 88 265 0.0 0.0 0.00 0.00 0.00 75 1012.8
20260904002010 89 265 0.0 0.0 0.00 0.00 0.00 73 1012.9
20260904001558 90 0 0.0 0.0 0.00 0.00 0.00 71 1013.0
20260904001523 91 265 0.0 0.0 0.00 0.00 0.00 70 1012.9
20260904001011 92 268 0.0 0.0 0.00 0.00 0.00 70 1012.9
20260904000518 93 268 0.0 0.0 0.00 0.00 0.00 68 1012.9
20260904000051 95 0 0.0 0.0 0.00 0.00 0.00 66 1013.1
20260904000029 95 268 0.0 0.0 0.00 0.00 0.00 66 1013.0
20260903235517 96 268 0.0 0.0 0.00 0.00 0.00 64 1013.1
20260903235012 96 268 0.0 0.0 0.00 0.00 0.00 63 1013.0
20260903234601 97 0 0.0 0.0 0.00 0.00 0.00 62 1013.2
20260903234532 97 268 0.0 0.0 0.00 0.00 0.00 62 1013.0
20260903234004 97 268 0.0 0.0 0.00 0.00 0.00 61 1013.1
20260903233509 97 268 0.0 0.0 0.00 0.00 0.00 61 1013.2
20260903233103 97 0 0.0 0.0 0.00 0.00 0.00 61 1013.3
20260903233012 97 268 0.0 0.0 0.00 0.00 0.00 61 1013.3
20260903232509 97 268 0.0 0.0 0.00 0.00 0.00 60 1013.4
20260903232006 98 268 0.0 0.0 0.00 0.00 0.00 59 1013.4
20260903231601 97 0 0.0 0.0 0.00 0.00 0.00 60 1013.4
20260903231518 97 268 0.0 0.0 0.00 0.00 0.00 60 1013.2
20260903231010 97 268 0.0 0.0 0.00 0.00 0.00 61 1013.1
20260903230509 96 268 0.0 0.0 0.00 0.00 0.00 61 1013.2
20260903230106 95 0 0.0 0.0 0.00 0.00 0.00 62 1013.3
20260903230045 95 268 0.0 0.0 0.00 0.00 0.00 62 1013.3
20260903225515 94 268 0.0 0.0 0.00 0.00 0.00 62 1013.3
20260903225015 94 268 0.0 0.0 0.00 0.00 0.00 61 1013.3
20260903224600 94 0 0.0 0.0 0.00 0.00 0.00 61 1013.4
20260903224530 94 270 0.0 0.0 0.00 0.00 0.00 61 1013.3
20260903224018 94 260 0.0 1.0 0.00 0.00 0.00 60 1013.4
20260903223514 94 280 0.0 1.0 0.00 0.00 0.00 61 1013.2
20260903223114 93 0 0.0 3.0 0.00 0.00 0.00 61 1013.3
20260903223033 93 263 0.0 3.0 0.00 0.00 0.00 61 1013.3
20260903222505 93 274 0.0 3.0 0.00 0.00 0.00 62 1013.3
20260903222007 93 271 1.0 3.0 0.00 0.00 0.00 61 1013.3
20260903221607 93 288 1.0 5.0 0.00 0.00 0.00 60 1013.3
20260903221515 93 262 1.0 5.0 0.00 0.00 0.00 60 1013.3
20260903221012 93 291 2.0 5.0 0.00 0.00 0.00 60 1013.3
20260903220510 94 251 1.0 4.0 0.00 0.00 0.00 61 1013.2
20260903220024 94 245 2.0 3.0 0.00 0.00 0.00 62 1013.2
20260903215512 94 261 1.0 3.0 0.00 0.00 0.00 61 1013.1
20260903215010 94 306 0.0 3.0 0.00 0.00 0.00 61 1013.2
20260903214559 94 276 0.0 3.0 0.00 0.00 0.00 60 1013.4
20260903214537 94 274 0.0 3.0 0.00 0.00 0.00 60 1013.2
20260903214013 94 283 1.0 3.0 0.00 0.00 0.00 60 1013.3
20260903213517 94 280 1.0 3.0 0.00 0.00 0.00 60 1013.2
20260903213106 94 283 1.0 3.0 0.00 0.00 0.00 61 1013.3
20260903213034 94 263 1.0 3.0 0.00 0.00 0.00 61 1013.1
20260903212516 94 212 1.0 2.0 0.00 0.00 0.00 63 1013.1
20260903212017 94 266 1.0 5.0 0.00 0.00 0.00 62 1013.2
20260903211610 94 274 2.0 5.0 0.00 0.00 0.00 63 1013.5
20260903211533 94 257 2.0 5.0 0.00 0.00 0.00 61 1013.3
20260903211008 94 245 1.0 4.0 0.00 0.00 0.00 63 1013.3
20260903210505 94 250 1.0 4.0 0.00 0.00 0.00 62 1013.3
20260903210059 94 249 1.0 4.0 0.00 0.00 0.00 61 1013.5